{"data":{"norad_id":56816,"intl_designator":"2023-078BB","name":"STARLINK-6067","alt_names":[],"object_type":"PAYLOAD","status":"ACTIVE","operator":null,"country":"US","launch_date":"2023-05-31","launch_site_code":"AFWTR","launch_vehicle":null,"mission":null,"orbit_class":"UNKNOWN","rcs_meters":null,"size_class":null,"mass_kg":null,"dimensions":null,"purposes":["comms"],"wikipedia_slug":null,"has_3d_model":false,"image_url":null,"decayed_at":null,"tle_current":{"epoch":"2026-09-20T22:00:03.000096Z","epoch_age_seconds":82042,"freshness":"FRESH","line1":"1 56816U 23078BB  26263.91670139 -.00004077  00000+0 -26180-3 0  9990","line2":"2 56816  69.9997 191.8857 0001764 311.2590  97.1948 15.07467597  5661","mean_motion":15.07467597,"eccentricity":0.0001764,"inclination_deg":69.9997,"raan_deg":191.8857,"arg_perigee_deg":311.259,"mean_anomaly_deg":97.1948,"bstar":-0.0002618,"rev_number":566,"period_min":95.524441312419,"perigee_km":542.72040346635,"apogee_km":545.16251274637,"semimajor_km":6922.0784581064,"source":"CELESTRAK","updated_at":"2026-09-21T09:00:33.513920Z"}}}